Theta_e
351 350 348 345 351 345 345 342 343 344 345 346 348 349 348 348 348 347 344 340 341 345 347 347 347 348 347 349 346 346 345 345 345 344 343 342 342 342 342 342 341 342 341 339 340 339 340 338 338 338 339 339 344 346 346 344 343 342 339 337 342 340
347 347 349 349 345 347 343 346 346 347 349 348 347 348 349 349 346 346 340 341 343 346 347 344 345 347 344 348 347 346 345 345 345 343 343 342 343 342 342 342 342 341 341 340 339 338 338 342 338 339 338 340 342 344 342 343 341 339 337 341 341 342
346 345 342 345 345 347 345 343 344 346 345 345 345 347 347 345 345 342 340 340 346 347 346 348 345 343 343 344 347 345 344 345 344 344 343 343 342 342 342 342 342 342 341 341 343 340 339 335 337 339 340 341 342 342 344 342 342 342 339 342 339 342
348 346 344 345 345 343 344 344 344 345 343 345 345 345 344 341 342 341 343 342 345 345 346 349 344 344 345 347 346 345 344 344 344 344 344 344 343 343 342 342 342 341 340 340 338 336 336 338 337 338 340 340 340 343 344 343 337 340 341 341 339 343
342 343 344 347 345 344 345 344 345 345 345 346 345 343 341 340 343 340 340 340 342 345 345 347 343 343 344 343 343 344 344 342 342 342 344 342 343 343 343 341 341 340 338 338 336 338 339 339 340 339 339 340 342 345 343 344 341 341 341 341 341 342
342 343 345 344 345 347 344 344 348 347 346 344 341 342 342 343 343 341 341 345 344 343 345 347 345 343 340 345 344 344 344 344 344 341 342 342 341 341 340 339 339 337 338 339 339 341 336 337 336 335 337 338 341 341 343 342 340 344 344 343 340 342
340 343 343 347 347 349 346 347 349 344 341 340 341 338 340 341 341 341 344 343 341 342 341 342 344 343 340 343 345 345 346 346 344 345 343 343 340 340 339 339 339 339 340 339 337 337 335 335 336 335 334 335 336 339 340 340 340 340 348 343 341 342
341 342 341 346 345 345 347 344 343 343 342 343 341 336 341 339 342 344 343 344 343 346 343 345 345 344 341 342 339 340 341 341 341 342 343 344 340 340 340 339 340 337 339 338 335 337 335 334 333 334 335 334 334 336 339 339 341 341 345 344 340 342
340 340 343 344 339 343 343 343 343 343 343 343 344 342 346 346 347 347 346 343 345 347 344 343 343 342 342 337 337 337 341 342 341 343 339 340 340 343 341 341 341 340 339 338 336 337 335 335 335 335 333 332 334 332 336 337 340 339 346 346 342 340
346 342 339 343 343 341 341 342 341 339 341 345 346 346 347 345 344 346 344 343 342 344 343 342 341 343 342 340 340 339 342 341 342 341 339 339 339 344 340 341 342 342 336 335 335 337 336 335 332 334 332 333 331 333 334 336 337 339 342 343 344 342
347 345 344 343 344 344 343 340 340 340 341 344 346 347 346 344 345 345 345 343 344 344 346 344 342 342 346 344 343 340 339 339 343 340 342 340 340 343 342 339 338 339 336 335 332 339 333 335 335 330 332 331 331 334 335 336 338 336 337 340 345 343
344 346 346 343 344 343 341 340 342 342 343 343 347 346 343 342 342 343 343 343 345 344 343 344 343 342 341 342 341 340 339 336 340 345 341 341 340 338 338 336 336 335 335 334 335 336 336 338 335 333 331 331 333 333 333 333 333 335 336 342 343 344
343 345 345 342 342 341 343 342 343 343 342 345 347 346 342 341 341 342 343 342 342 342 342 343 344 343 340 343 342 340 335 335 337 340 341 339 336 337 340 339 337 337 334 335 335 335 334 340 336 335 335 332 332 330 332 330 333 333 337 340 340 342
344 343 342 342 343 344 343 343 345 344 344 344 345 344 343 342 342 341 342 342 343 343 344 344 341 341 343 341 341 340 337 338 340 341 338 340 336 338 338 340 338 335 335 334 334 331 332 334 335 334 334 334 334 336 334 332 334 334 336 337 340 341
344 343 343 343 343 343 344 343 343 345 346 347 344 344 344 344 344 343 343 342 343 345 343 341 341 344 340 339 337 337 337 336 337 337 339 338 338 340 338 337 337 336 336 336 335 335 332 330 336 335 334 336 334 332 334 333 335 333 334 336 341 340
339 341 341 340 339 345 344 344 344 344 345 346 342 342 342 344 343 342 343 340 342 342 341 341 340 340 340 340 339 338 336 338 338 338 339 340 340 339 339 337 338 337 335 335 336 336 334 333 331 333 335 336 336 337 335 334 334 332 333 335 337 340
337 335 337 336 342 341 345 344 345 344 344 344 342 342 342 344 343 342 342 341 342 341 340 340 341 340 339 339 337 338 338 338 338 338 337 337 338 339 338 336 335 337 337 335 335 332 333 332 331 336 332 335 335 335 334 336 337 337 334 335 335 337
337 335 331 332 337 343 344 344 345 343 345 344 344 342 343 344 343 342 342 341 342 341 341 340 340 341 340 338 338 337 338 337 335 336 337 338 339 339 338 334 334 337 337 335 335 335 333 335 330 329 332 332 334 336 335 336 337 338 336 335 337 336
336 335 336 340 341 344 344 344 345 342 342 341 340 339 339 341 339 339 342 342 342 342 341 341 340 341 342 338 338 337 336 337 335 336 336 332 336 336 336 337 336 335 334 335 335 335 335 333 331 331 333 332 334 335 338 338 337 337 336 336 338 337
336 335 340 342 343 342 339 341 336 336 335 334 335 335 339 336 337 335 336 336 336 338 342 341 341 339 342 341 340 339 337 337 336 338 338 335 336 335 331 333 335 333 331 333 335 334 336 335 335 333 334 336 335 334 336 336 334 335 337 338 337 339
336 338 339 340 341 337 336 333 331 331 331 333 333 335 335 335 335 334 334 333 335 334 336 338 340 341 339 338 339 340 337 336 336 336 336 335 334 334 335 336 334 335 333 331 331 335 337 335 333 333 333 331 333 335 335 335 334 333 336 334 337 337
332 335 338 337 333 332 335 331 331 330 331 333 331 331 332 333 333 333 334 334 335 335 336 336 336 336 336 335 335 335 336 336 337 335 335 335 334 335 338 338 337 334 336 332 329 334 335 331 328 325 324 325 329 332 334 332 332 331 334 333 335 335
331 333 332 332 330 329 334 335 334 332 331 330 333 335 331 331 332 331 335 335 335 334 333 333 333 333 333 333 333 332 332 332 332 332 331 332 334 336 336 336 337 334 332 333 332 333 335 333 330 327 328 325 323 321 327 330 332 331 332 334 333 335
331 332 332 330 330 331 334 336 337 336 336 335 333 333 333 332 329 330 331 333 334 334 332 331 329 327 330 332 333 332 332 331 332 333 331 330 330 328 332 334 334 334 334 330 329 330 336 335 333 328 322 321 323 321 317 322 326 330 332 333 333 332
331 332 331 331 330 331 335 335 336 337 336 333 332 329 328 326 329 328 329 331 332 333 331 330 330 329 329 331 332 331 331 331 331 332 331 329 329 329 328 329 331 332 331 330 327 332 335 337 336 336 329 324 319 318 317 323 324 327 333 332 331 331
334 332 332 331 333 334 336 334 333 330 326 327 326 327 325 322 322 326 326 331 332 331 331 330 329 329 328 329 330 330 331 329 330 331 331 330 329 329 329 329 330 330 329 332 329 331 329 333 336 335 335 331 329 321 318 324 321 317 330 330 330 330
336 334 332 331 332 335 335 334 332 330 329 327 326 328 328 329 327 326 329 330 330 332 330 330 330 329 329 329 329 330 330 329 329 329 329 330 329 329 328 330 331 332 330 333 332 326 328 328 332 332 334 334 330 329 330 324 319 322 317 326 330 330
333 332 331 331 333 337 334 333 333 331 330 329 329 327 329 328 329 329 327 328 329 329 329 328 329 327 327 326 327 326 327 329 327 326 325 326 326 328 329 330 331 331 331 331 331 328 330 328 326 326 330 331 331 332 332 332 330 323 320 318 320 327
330 334 333 333 335 337 336 335 333 331 329 331 330 328 327 327 327 328 328 327 328 328 329 329 327 325 324 324 325 326 326 326 326 325 324 323 326 328 329 330 329 329 329 329 329 329 330 329 328 326 327 328 328 329 329 330 330 326 322 320 318 322
329 333 335 334 338 337 336 335 331 331 330 327 327 325 326 325 326 328 327 327 326 325 325 326 326 325 324 325 326 326 325 325 325 323 324 326 326 326 326 326 326 327 328 328 328 328 328 328 329 330 328 327 324 326 325 324 326 326 326 324 317 321
332 336 338 336 333 336 335 334 332 332 329 328 327 326 324 325 325 326 325 325 325 324 325 324 324 325 324 323 325 325 324 323 325 326 325 324 324 323 325 326 326 324 325 326 325 326 327 327 326 325 325 323 322 323 322 319 323 324 323 322 321 322
331 335 331 326 324 331 335 333 333 332 330 329 328 325 325 325 324 325 325 324 324 323 323 323 324 322 323 324 324 322 323 323 324 324 324 326 326 325 325 324 324 325 326 327 328 326 327 326 326 322 322 321 320 321 322 320 321 322 323 322 321 320
331 334 328 324 325 329 334 332 331 331 331 330 328 327 326 325 326 325 324 322 322 321 321 321 321 321 323 325 324 323 322 320 321 324 325 323 324 324 323 323 324 324 324 323 322 324 322 324 324 323 321 321 319 318 319 321 322 322 323 324 321 317
333 334 332 328 326 329 334 333 332 331 331 330 328 327 326 326 326 325 324 322 322 321 321 322 321 322 323 324 323 323 323 323 321 322 322 323 324 324 323 320 323 323 323 323 324 324 323 323 323 323 322 318 318 318 318 319 321 322 322 321 320 318
334 334 334 333 330 335 334 332 331 331 331 331 328 326 325 326 327 325 324 323 323 323 322 322 322 324 324 324 324 324 323 323 322 322 322 322 322 323 322 319 320 322 320 321 321 320 319 322 321 321 322 319 318 318 317 316 316 319 322 323 322 321
333 332 333 333 332 334 333 333 331 331 331 331 329 328 326 326 327 326 325 324 324 325 323 323 323 324 324 325 323 323 324 324 322 322 322 322 322 322 322 320 319 321 320 318 320 320 319 321 321 321 321 320 318 316 319 318 318 317 318 322 322 321
332 331 331 330 330 330 328 329 330 331 331 332 331 329 327 328 328 328 326 325 325 324 326 324 324 325 325 325 325 324 324 324 325 323 322 322 322 322 322 321 320 319 319 320 319 318 320 320 320 321 321 320 318 318 319 320 319 319 320 321 322 321
Wind_Speed
10 11 7 9 7 11 10 10 8 11 10 11 11 10 10 9 9 9 10 11 9 7 8 8 9 8 12 9 8 10 11 11 11 11 11 10 10 9 8 8 7 5 5 5 5 5 4 3 3 3 2 5 4 6 5 2 2 2 4 2 8 8
8 9 8 7 8 7 9 9 10 10 10 8 8 9 7 7 7 7 11 9 5 5 6 7 7 9 7 8 9 9 10 11 11 11 10 10 10 10 9 8 7 6 5 6 6 6 7 6 4 4 5 5 6 6 6 4 3 3 5 5 8 10
12 13 13 8 9 7 9 7 6 8 8 9 7 9 6 4 4 4 7 7 6 5 5 5 7 7 7 7 9 9 10 11 11 11 11 10 10 10 10 9 7 7 6 8 6 6 5 6 5 7 5 6 6 5 4 5 5 2 5 7 8 12
10 11 8 9 9 9 8 8 8 8 7 7 9 6 5 4 5 4 4 3 4 4 3 4 9 9 10 7 8 7 9 11 11 11 12 9 10 9 10 9 8 7 7 7 7 5 6 7 6 5 5 5 5 3 3 4 5 4 7 6 8 14
13 9 10 7 10 8 9 6 7 8 8 8 7 6 4 3 3 6 9 7 6 4 4 4 6 8 5 6 7 6 7 7 7 8 11 7 7 7 8 7 7 7 7 6 5 7 4 1 2 4 5 4 3 2 5 4 5 4 6 7 9 13
11 6 8 9 8 8 10 8 7 7 7 6 6 7 5 4 4 5 9 7 6 7 3 3 5 5 5 1 3 4 6 4 5 6 8 4 5 5 7 6 7 7 5 7 6 1 4 2 4 3 4 4 3 4 5 4 4 3 9 8 9 13
10 7 8 7 8 7 8 7 6 7 7 6 4 4 4 6 8 12 5 6 5 7 5 5 4 6 4 5 3 1 2 2 3 4 4 4 5 6 5 7 8 6 6 6 4 5 3 4 3 3 5 5 5 5 5 5 4 4 8 7 9 11
12 9 6 8 8 9 6 8 7 7 6 5 6 4 11 12 10 10 11 7 5 4 6 4 3 6 8 4 3 3 3 4 3 3 4 4 4 6 8 4 3 6 6 5 5 4 5 4 4 5 3 5 5 4 4 3 3 4 8 5 7 10
15 14 7 6 9 5 4 3 4 3 2 8 8 12 5 7 6 6 6 6 4 2 4 3 2 3 5 7 8 5 4 4 2 4 5 5 9 4 6 3 2 3 6 4 4 4 3 4 4 3 4 4 4 6 4 3 4 4 8 3 6 9
8 11 10 6 4 9 8 5 3 2 5 6 7 4 6 4 4 3 7 7 3 1 3 3 1 1 0 3 4 3 2 1 3 4 6 4 6 6 4 4 3 1 6 6 3 4 3 4 5 4 4 5 5 4 5 5 4 4 11 2 3 8
9 10 11 10 8 8 7 5 8 8 5 4 2 5 4 4 5 5 5 6 3 4 3 3 2 1 1 1 1 3 1 2 1 2 4 4 7 7 4 6 9 9 7 9 6 2 4 4 5 5 3 4 5 5 7 5 4 2 6 4 5 6
8 8 7 9 8 8 9 8 9 10 6 5 5 4 3 5 6 5 5 3 4 4 3 2 2 2 2 2 3 2 3 1 1 2 2 5 6 7 5 1 1 2 2 1 12 5 4 3 5 3 5 5 4 4 4 4 7 5 6 9 6 2
8 7 7 8 7 6 6 7 6 5 6 5 4 3 3 5 7 6 3 2 4 4 3 2 3 4 5 3 2 3 4 2 2 2 3 3 4 4 3 3 1 2 1 3 2 7 6 6 5 4 2 4 1 3 4 7 6 6 4 10 6 2
7 8 6 7 8 8 6 7 5 4 6 5 4 3 3 4 6 7 4 1 3 2 3 3 4 4 0 1 2 3 3 1 2 3 1 1 0 2 4 1 2 1 2 2 3 1 4 8 9 5 3 1 3 0 1 1 3 2 2 9 7 7
5 4 4 5 5 7 5 5 4 4 4 4 4 3 3 4 3 6 5 2 2 4 3 4 3 1 2 2 2 4 3 2 1 1 0 1 2 2 4 3 0 2 1 2 2 3 3 2 6 12 3 3 2 3 2 2 2 1 4 6 7 7
5 4 3 6 2 3 4 3 4 4 4 4 3 3 3 3 4 5 4 7 6 4 2 3 3 4 2 2 2 4 3 2 3 2 1 1 2 3 3 2 2 1 2 3 2 2 2 3 7 10 6 3 3 2 3 4 2 2 2 3 6 5
9 7 8 5 4 5 3 4 5 4 4 4 3 3 3 3 3 5 4 5 4 3 4 3 2 4 3 1 2 2 5 4 3 1 4 4 3 2 2 1 1 2 2 2 2 2 2 3 6 7 5 4 5 2 4 1 1 2 1 1 2 6
7 9 4 1 4 3 3 4 4 4 4 4 3 3 3 3 4 4 4 5 6 5 3 3 2 3 2 2 2 1 3 5 3 2 2 3 2 2 1 2 2 2 1 3 3 2 3 0 6 9 6 5 2 1 4 1 1 1 3 1 3 3
8 7 4 6 4 2 4 4 3 3 5 4 3 4 4 4 4 4 4 5 5 5 4 5 4 3 1 3 2 2 3 2 4 5 3 3 3 3 4 1 1 2 3 2 4 4 3 4 5 6 4 4 3 5 5 4 3 4 1 1 2 2
7 7 6 6 4 4 4 4 4 4 4 4 5 4 4 5 4 5 6 6 5 4 4 4 4 5 4 3 3 3 4 3 5 2 2 2 2 2 3 3 2 1 3 4 5 5 5 3 5 4 0 1 7 3 2 3 4 5 2 1 3 3
5 6 6 6 4 1 2 4 4 5 5 5 5 5 5 5 5 5 6 6 5 5 4 4 4 4 4 3 3 4 4 2 4 2 2 1 1 6 7 5 5 3 4 6 4 4 3 5 4 2 4 4 2 5 3 3 2 5 5 3 2 0
2 1 5 4 5 3 7 3 5 5 5 5 6 5 5 5 5 5 6 5 5 5 5 5 4 5 4 3 4 3 2 2 1 3 4 6 6 3 3 3 3 4 4 6 5 3 1 2 4 3 1 2 2 2 4 3 3 4 5 6 7 4
9 7 5 5 6 0 8 5 4 5 5 5 5 5 6 6 6 6 5 6 6 5 5 5 4 3 3 4 3 3 3 2 2 2 2 1 2 2 2 3 3 3 3 5 4 4 3 3 2 1 2 2 1 1 1 3 2 1 2 4 3 6
9 5 3 2 4 2 10 3 5 5 5 5 7 7 7 6 6 6 6 6 6 4 4 4 3 4 5 6 4 3 3 3 3 2 2 1 1 1 1 2 2 2 4 1 4 2 3 4 3 2 2 2 1 2 4 2 2 1 3 3 4 7
9 9 7 3 4 4 7 6 6 6 7 8 6 6 6 6 5 6 6 6 5 5 5 5 5 5 6 4 4 4 3 3 3 3 2 2 2 2 2 1 2 3 3 3 4 3 2 1 2 3 2 2 2 3 1 3 2 1 2 3 5 5
9 8 6 3 3 9 7 7 8 8 8 7 7 6 6 6 6 5 7 6 6 5 6 4 4 4 5 5 3 3 3 3 3 3 3 3 3 3 4 4 5 4 4 3 4 3 2 2 0 1 1 2 3 1 1 3 4 1 1 4 4 5
9 7 6 4 8 9 8 7 8 8 8 7 7 6 6 5 6 6 6 6 6 6 6 5 6 5 5 5 4 4 2 2 2 3 3 3 4 4 4 5 4 4 5 4 4 3 1 0 3 2 0 2 3 3 2 1 1 2 3 3 4 3
5 4 7 7 14 10 8 9 9 8 8 8 7 8 7 6 6 6 7 7 6 5 6 6 5 5 5 5 4 3 3 3 3 3 2 4 4 5 5 5 5 6 5 6 6 5 5 3 2 3 3 1 1 1 2 2 3 1 2 1 3 4
9 7 10 15 13 11 9 9 8 8 8 8 9 8 7 7 6 6 7 6 6 6 6 6 6 6 6 5 5 5 5 5 4 4 4 5 5 6 6 5 6 6 6 6 6 7 6 5 5 4 4 4 1 2 2 3 3 2 1 2 3 3
14 12 11 13 10 10 9 8 7 8 9 10 8 8 8 8 7 6 7 7 6 6 6 5 6 6 6 6 5 5 5 5 5 6 6 6 5 5 5 5 6 6 6 6 5 6 6 6 5 4 1 2 4 4 3 4 4 4 3 5 1 4
8 6 6 3 4 7 7 6 7 8 10 10 10 9 9 8 7 7 7 6 6 6 6 6 5 5 6 6 6 6 5 6 5 5 5 6 6 6 5 5 5 7 7 7 5 5 5 6 4 5 5 5 5 3 3 3 3 1 1 4 4 1
6 6 7 9 4 9 5 6 7 8 9 9 9 8 9 9 9 8 7 7 6 6 6 6 5 5 5 6 5 6 6 6 6 5 5 5 4 4 5 5 5 5 5 6 6 6 7 7 7 5 5 4 3 4 4 5 5 5 4 4 5 3
9 7 11 8 7 12 6 6 7 8 9 8 8 9 9 9 8 7 7 7 7 7 7 6 6 6 5 5 5 5 5 5 5 5 5 5 5 4 5 5 6 6 6 7 6 7 6 7 7 7 5 5 6 6 6 4 4 5 5 2 3 3
13 12 11 9 10 11 7 5 7 7 7 7 8 8 8 8 8 7 7 7 7 7 7 7 7 6 5 6 6 6 6 6 6 6 6 5 5 5 4 6 5 6 6 6 6 6 6 7 7 7 6 5 6 6 5 5 5 3 4 3 4 4
13 13 13 12 10 9 7 5 6 5 6 6 7 7 7 7 7 7 7 7 7 7 7 7 7 6 6 7 6 6 6 6 6 6 5 5 5 5 5 6 6 5 5 5 6 5 6 7 6 7 7 6 5 5 6 6 5 7 5 4 4 3
14 13 11 11 9 7 7 5 1 5 5 6 6 7 7 7 6 6 7 7 7 7 7 8 8 7 7 6 7 7 6 6 6 6 5 5 5 5 5 5 5 5 5 4 5 6 5 6 6 7 7 6 5 6 5 6 6 5 5 3 5 3
12 12 11 9 8 6 7 5 2 2 3 4 5 6 7 8 7 6 6 6 6 7 8 8 8 8 7 7 6 6 6 6 6 6 6 5 5 5 5 5 5 6 6 6 6 6 5 5 6 5 5 6 5 6 5 5 6 6 5 5 4 3
Wind_Direction
160 149 159 152 136 150 136 149 143 140 126 126 112 119 127 133 135 134 119 102 154 167 158 150 144 141 137 146 132 130 143 138 134 137 138 138 137 135 130 133 139 145 155 157 177 182 192 182 177 195 182 253 261 229 233 271 206 163 94 182 102 103
155 162 138 137 152 144 142 158 160 139 136 125 121 129 137 148 150 140 126 148 193 178 169 159 140 142 132 136 136 141 142 138 136 138 142 147 144 146 153 153 157 168 189 205 206 205 182 193 193 214 214 211 233 227 211 201 225 224 140 115 102 112
174 169 151 177 144 129 141 157 148 128 136 145 140 151 152 146 118 125 153 180 198 182 174 153 144 121 152 151 138 145 139 139 139 143 148 149 157 160 162 163 168 188 207 230 226 232 210 177 180 195 248 226 234 231 173 203 215 210 122 84 96 124
146 117 143 153 146 154 161 161 154 152 149 158 163 160 161 155 151 161 154 244 210 176 143 130 103 110 138 149 136 137 142 143 146 151 155 163 162 171 169 175 185 203 213 215 218 234 221 183 169 177 189 223 234 213 192 193 217 215 129 139 123 130
142 160 173 151 145 153 141 143 165 158 163 161 164 162 174 177 174 153 192 187 188 149 158 136 149 162 160 141 149 156 161 170 169 167 174 177 179 173 192 190 189 207 215 217 215 213 260 125 183 184 193 211 215 206 215 187 232 209 104 114 126 134
126 149 138 157 154 146 149 163 160 161 157 154 167 174 163 173 167 186 224 180 164 141 113 160 144 123 74 135 165 167 177 167 196 183 187 193 201 191 203 208 203 199 215 219 218 212 209 211 191 210 217 193 211 204 228 201 196 215 108 127 137 133
128 139 153 148 147 147 144 154 157 158 160 172 176 163 180 148 193 199 201 175 170 147 142 188 172 117 140 185 168 203 193 194 214 216 191 210 216 229 232 213 214 206 197 214 195 197 198 208 255 208 207 185 210 203 223 209 180 211 100 123 136 140
124 148 187 166 151 152 140 153 161 158 180 161 156 197 198 170 196 185 181 130 103 152 156 154 144 160 162 149 139 219 228 202 225 257 253 219 241 225 233 229 217 205 206 204 210 201 197 164 185 254 179 203 177 237 214 244 190 188 118 118 139 146
145 163 158 167 145 112 107 145 138 165 189 187 176 210 157 148 165 141 102 93 130 143 118 127 146 196 155 138 163 215 207 202 138 276 292 231 230 192 240 228 241 258 240 207 209 194 183 186 197 198 214 200 195 197 207 202 242 218 115 178 140 152
154 140 159 162 131 124 137 143 135 181 224 194 210 120 156 146 96 94 99 90 58 37 92 75 152 82 92 119 171 145 229 72 121 221 240 268 260 217 214 201 217 232 330 269 205 183 188 196 212 173 212 210 171 193 197 212 215 222 103 227 128 137
140 144 142 153 135 130 136 150 164 188 226 187 131 153 159 134 90 78 74 78 183 87 91 126 176 232 80 31 36 111 180 149 194 268 312 324 322 355 17 14 347 4 342 337 272 158 201 211 211 161 187 224 164 195 171 210 217 164 142 183 138 133
131 125 128 132 137 148 159 177 197 161 188 124 171 155 149 112 91 66 83 156 109 92 89 137 193 123 199 165 206 150 77 55 322 302 340 351 348 342 21 28 79 162 218 289 320 334 304 218 234 193 168 207 169 178 163 140 230 155 194 126 110 145
131 125 142 138 144 147 178 162 167 156 117 164 151 168 141 93 109 132 102 73 74 107 132 157 222 204 187 217 145 83 68 96 330 336 15 359 17 304 333 14 353 338 97 295 328 321 298 330 269 283 216 168 213 199 174 192 181 195 177 119 137 178
153 145 148 153 154 156 161 148 174 132 145 144 155 135 110 109 112 92 110 128 112 138 193 163 225 199 9 302 68 109 139 154 161 196 158 124 24 276 273 292 31 32 350 330 325 94 321 310 325 258 239 218 184 224 260 226 137 144 205 121 142 155
144 139 133 126 142 137 150 148 147 125 133 124 132 137 122 102 114 126 131 108 145 139 199 160 177 19 147 199 208 89 88 174 125 78 165 68 219 242 251 259 78 324 325 274 281 302 333 245 263 267 192 281 222 168 284 300 95 207 157 144 150 142
141 143 106 85 241 122 141 143 124 126 129 135 135 139 134 128 134 126 148 158 159 139 146 187 165 156 171 173 208 118 110 128 137 135 261 191 235 241 246 257 248 279 285 276 264 304 285 299 298 314 3 265 329 273 169 214 221 224 217 157 140 145
137 170 124 192 150 141 170 134 123 130 136 141 132 130 123 122 130 137 157 122 113 116 142 127 186 142 157 199 147 186 146 145 118 164 166 207 242 240 255 235 277 287 295 288 310 7 329 298 293 255 251 249 215 222 260 252 180 224 242 166 253 133
104 102 116 233 238 136 146 133 134 134 135 126 112 97 104 126 125 128 128 123 132 132 144 137 152 138 125 177 162 185 144 126 143 207 212 229 167 254 230 141 234 243 277 309 296 332 305 257 243 260 238 234 249 124 262 242 259 310 274 290 182 212
128 132 145 142 179 164 142 147 119 132 128 125 141 124 129 127 111 106 92 107 122 135 143 148 145 111 198 152 122 112 48 163 126 225 108 319 14 319 280 218 320 309 303 266 268 264 234 241 254 232 258 296 69 351 358 345 340 270 176 301 346 265
121 143 148 135 165 173 160 140 134 140 149 149 120 116 114 103 101 98 107 103 109 116 140 141 145 144 142 111 130 142 144 155 192 163 129 142 184 237 272 264 255 196 245 267 254 242 255 285 262 303 309 249 96 259 289 8 323 313 358 356 292 20
131 153 151 151 141 133 184 135 143 157 139 124 114 118 103 98 88 71 78 96 106 98 96 104 112 114 117 132 140 155 133 208 113 188 134 153 211 226 225 213 223 162 214 231 246 259 239 261 283 205 3 324 45 349 331 321 316 314 335 320 283 81
12 146 152 114 60 18 268 161 177 151 135 137 133 129 108 91 88 96 87 82 73 91 107 103 85 79 78 83 91 92 89 84 63 126 169 161 198 202 206 218 238 225 206 210 200 243 350 26 262 346 41 325 323 302 355 322 318 320 352 327 324 316
172 175 174 126 120 180 266 188 177 131 141 132 113 109 107 106 109 103 95 90 83 77 67 78 89 96 99 85 66 68 84 95 73 84 111 125 152 186 217 231 218 228 231 234 162 180 197 256 265 137 247 244 253 339 17 301 267 50 318 318 7 290
128 141 137 142 119 184 258 152 110 138 120 111 107 92 101 102 101 114 105 91 95 103 111 107 112 101 69 56 47 50 64 57 57 61 52 71 110 139 264 288 253 271 288 349 23 286 214 199 254 271 240 282 28 77 301 213 222 94 8 358 344 35
153 158 155 172 122 213 222 141 132 116 101 107 122 129 131 124 115 106 111 111 105 114 98 79 60 69 77 60 43 43 35 67 66 49 40 68 68 54 20 339 27 334 319 347 213 167 170 215 196 256 269 262 209 181 304 360 206 100 19 28 35 49
156 139 140 164 176 211 176 159 147 142 142 144 136 146 125 123 138 134 103 113 118 108 102 114 88 65 70 80 72 64 42 46 57 53 48 31 48 47 44 12 19 4 353 10 342 273 150 134 206 98 15 192 347 53 92 252 299 143 100 80 46 71
134 129 132 115 234 206 178 165 162 154 149 144 133 112 105 103 101 106 114 99 96 96 99 80 78 82 57 61 42 43 27 66 94 117 82 52 44 28 25 37 20 20 20 7 13 320 25 313 127 152 142 38 72 298 93 261 183 187 185 107 84 90
92 142 146 161 218 196 183 169 166 152 143 136 121 117 119 108 106 109 111 117 110 104 97 101 97 95 102 78 68 74 61 25 15 31 80 70 48 44 26 32 33 32 25 25 23 18 358 1 20 32 330 1 334 165 260 265 214 290 3 172 130 69
164 180 169 194 198 191 181 172 161 152 143 119 123 127 127 127 118 115 122 118 104 93 82 85 87 80 72 83 87 68 55 48 22 29 67 85 62 58 51 40 37 38 33 30 27 16 15 18 24 63 8 328 318 331 327 310 303 106 30 260 96 114
171 186 191 191 189 190 172 173 154 147 131 131 134 132 130 126 126 128 114 113 121 119 116 105 87 72 77 75 72 81 74 62 55 52 59 67 82 71 52 50 43 38 30 47 37 34 31 20 25 46 62 14 10 17 43 45 312 349 143 50 44 135
166 184 161 63 285 192 181 171 144 140 135 136 136 133 131 134 133 133 130 132 124 121 116 110 107 97 89 86 74 65 71 78 69 48 52 63 56 63 69 57 53 51 50 39 49 52 52 40 36 35 16 31 27 67 352 354 73 162 19 72 69 45
161 134 111 128 270 262 207 163 139 140 139 138 141 141 140 137 139 138 138 129 120 121 121 120 115 107 100 95 91 88 81 72 64 64 63 47 61 78 67 64 50 51 52 49 41 45 42 35 22 44 38 12 30 27 23 7 21 15 92 137 158 159
158 139 144 152 162 248 207 166 147 145 140 146 146 142 140 139 142 144 146 135 138 132 133 133 122 117 116 110 97 86 81 79 76 62 56 74 69 65 74 67 68 65 52 52 52 42 49 43 34 19 19 28 18 28 29 34 23 27 31 59 137 109
158 155 153 163 157 218 178 166 147 144 144 152 147 144 142 142 147 148 145 145 145 141 136 128 128 124 120 111 98 91 88 87 85 85 82 71 57 42 65 88 74 61 62 56 45 51 52 48 40 33 20 40 23 33 26 28 8 20 68 49 67 82
156 164 167 157 182 177 137 160 155 151 154 161 150 148 143 145 149 148 148 155 145 143 136 136 129 120 113 112 119 109 102 97 93 92 87 86 80 67 57 70 75 67 68 59 57 61 57 45 47 38 31 19 43 48 16 22 45 4 60 63 65 71
156 159 156 144 147 122 109 95 105 162 161 164 156 147 141 146 143 146 149 150 145 144 143 134 130 132 129 124 120 125 118 105 99 99 92 85 84 81 71 78 78 73 70 73 67 59 66 66 48 43 32 20 38 45 30 19 30 39 24 39 108 129
152 151 150 151 151 128 103 103 73 189 174 171 153 139 135 136 134 131 135 144 153 148 139 141 136 139 137 136 136 126 118 113 106 97 96 98 99 97 92 84 83 79 77 66 70 64 58 58 53 42 34 27 40 39 34 37 24 30 27 2 38 39